• In Netherlands
  • List of Countries
  • For 7 days
  • Water Temperature
  • Satellite Maps
  • Weather Map
  • Weather Widgets
  • user-avatar
    Login

    Hourly Weather Sevan

    Today, 23 May, Tuesday

    Time Temperature Precipitation Wind Pressure Humidity
    00:00 +9°C° 0.1 mm 1 mps 637 mmHg 79%
    01:00 +9°C° 0 mm 1 mps 637 mmHg 80%
    02:00 +8°C° 0 mm 2 mps 637 mmHg 80%
    03:00 +8°C° 0 mm 2 mps 637 mmHg 81%
    04:00 +9°C° 0.1 mm 2 mps 637 mmHg 78%
    05:00 +10°C° 0.1 mm 2 mps 637 mmHg 75%
    06:00 +10°C° 0.1 mm 2 mps 638 mmHg 72%
    07:00 +13°C° 0.1 mm 2 mps 638 mmHg 64%
    08:00 +15°C° 0.1 mm 2 mps 639 mmHg 57%
    09:00 +17°C° 0 mm 2 mps 639 mmHg 50%
    10:00 +16°C° 1.2 mm 2 mps 639 mmHg 58%
    11:00 +15°C° 1.2 mm 2 mps 639 mmHg 67%
    12:00 +13°C° 1.2 mm 2 mps 638 mmHg 76%
    13:00 +14°C° 0.4 mm 2 mps 638 mmHg 71%
    14:00 +15°C° 0.4 mm 2 mps 639 mmHg 66%
    15:00 +16°C° 0.4 mm 3 mps 639 mmHg 61%
    16:00 +16°C° 0.2 mm 3 mps 639 mmHg 61%
    17:00 +15°C° 0.2 mm 2 mps 638 mmHg 61%
    18:00 +15°C° 0.2 mm 2 mps 638 mmHg 62%
    19:00 +13°C° 0.1 mm 2 mps 638 mmHg 68%
    20:00 +10°C° 0.1 mm 2 mps 638 mmHg 75%
    21:00 +9°C° 0.1 mm 1 mps 637 mmHg 82%
    22:00 +9°C° 0.3 mm 1 mps 638 mmHg 82%
    23:00 +9°C° 0.3 mm 1 mps 638 mmHg 83%

    Tomorrow, 24 May, Wednesday

    Time Temperature Precipitation Wind Pressure Humidity
    00:00 +9°C° 0.3 mm 1 mps 638 mmHg 84%
    01:00 +9°C° 0.5 mm 1 mps 638 mmHg 84%
    02:00 +9°C° 0.5 mm 1 mps 638 mmHg 83%
    03:00 +9°C° 0.5 mm 1 mps 638 mmHg 82%
    04:00 +9°C° 1.1 mm 1 mps 638 mmHg 83%
    05:00 +9°C° 1.1 mm 1 mps 638 mmHg 84%
    06:00 +10°C° 1.1 mm 1 mps 638 mmHg 85%
    07:00 +11°C° 0.6 mm 1 mps 638 mmHg 79%
    08:00 +13°C° 0.6 mm 1 mps 639 mmHg 73%
    09:00 +15°C° 0.6 mm 1 mps 639 mmHg 67%
    10:00 +16°C° 0.6 mm 1 mps 640 mmHg 63%
    11:00 +17°C° 0.6 mm 2 mps 640 mmHg 59%
    12:00 +18°C° 0.6 mm 2 mps 640 mmHg 56%
    13:00 +18°C° 0.8 mm 2 mps 640 mmHg 58%
    14:00 +17°C° 0.8 mm 2 mps 639 mmHg 61%
    15:00 +18°C° 0.8 mm 1 mps 639 mmHg 64%
    16:00 +16°C° 0.5 mm 2 mps 639 mmHg 67%
    17:00 +16°C° 0.5 mm 2 mps 639 mmHg 69%
    18:00 +15°C° 0.5 mm 2 mps 639 mmHg 72%
    19:00 +13°C° 0.1 mm 2 mps 639 mmHg 76%
    20:00 +12°C° 0.1 mm 2 mps 639 mmHg 81%
    21:00 +9°C° 0.1 mm 2 mps 639 mmHg 85%
    22:00 +10°C° 0 mm 1 mps 639 mmHg 86%
    23:00 +9°C° 0 mm 1 mps 639 mmHg 87%

    Day after tomorrow, 25 May, Thursday

    Time Temperature Precipitation Wind Pressure Humidity
    00:00 +8°C° 0 mm 1 mps 639 mmHg 88%
    01:00 +7°C° 0 mm 1 mps 638 mmHg 88%
    02:00 +7°C° 0 mm 1 mps 638 mmHg 88%
    03:00 +6°C° 0 mm 1 mps 638 mmHg 88%
    04:00 +7°C° 0 mm 1 mps 638 mmHg 83%
    05:00 +9°C° 0 mm 1 mps 639 mmHg 79%
    06:00 +10°C° 0 mm 1 mps 640 mmHg 75%
    07:00 +12°C° 0 mm 1 mps 640 mmHg 67%
    08:00 +14°C° 0 mm 1 mps 641 mmHg 59%
    09:00 +16°C° 0 mm 2 mps 642 mmHg 51%
    10:00 +17°C° 0.1 mm 2 mps 642 mmHg 47%
    11:00 +18°C° 0.1 mm 2 mps 642 mmHg 43%
    12:00 +19°C° 0.1 mm 2 mps 642 mmHg 39%
    13:00 +19°C° 0.1 mm 2 mps 642 mmHg 39%
    14:00 +19°C° 0.1 mm 2 mps 642 mmHg 40%
    15:00 +19°C° 0.1 mm 2 mps 641 mmHg 40%
    16:00 +19°C° 0.2 mm 2 mps 641 mmHg 45%
    17:00 +18°C° 0.2 mm 2 mps 641 mmHg 50%
    18:00 +18°C° 0.2 mm 1 mps 641 mmHg 54%
    19:00 +15°C° 0.1 mm 1 mps 641 mmHg 61%
    20:00 +12°C° 0.1 mm 1 mps 640 mmHg 67%
    21:00 +10°C° 0.1 mm 1 mps 640 mmHg 73%
    22:00 +9°C° 0 mm 1 mps 640 mmHg 75%
    23:00 +9°C° 0 mm 1 mps 640 mmHg 77%

    26 May, Friday

    Time Temperature Precipitation Wind Pressure Humidity
    00:00 +8°C° 0 mm 1 mps 640 mmHg 79%
    01:00 +8°C° 0 mm 1 mps 640 mmHg 79%
    02:00 +7°C° 0 mm 1 mps 639 mmHg 80%
    03:00 +6°C° 0 mm 1 mps 639 mmHg 80%
    04:00 +8°C° 0 mm 1 mps 640 mmHg 75%
    05:00 +10°C° 0 mm 1 mps 641 mmHg 70%
    06:00 +11°C° 0 mm 1 mps 641 mmHg 65%
    07:00 +13°C° 0 mm 1 mps 642 mmHg 56%
    08:00 +16°C° 0 mm 1 mps 642 mmHg 47%
    09:00 +18°C° 0 mm 2 mps 643 mmHg 38%
    10:00 +19°C° 0 mm 2 mps 643 mmHg 35%
    11:00 +20°C° 0 mm 2 mps 643 mmHg 33%
    12:00 +21°C° 0 mm 3 mps 643 mmHg 30%
    13:00 +21°C° 0 mm 3 mps 642 mmHg 31%
    14:00 +21°C° 0 mm 3 mps 642 mmHg 33%
    15:00 +21°C° 0 mm 3 mps 642 mmHg 34%
    16:00 +20°C° 0.1 mm 2 mps 642 mmHg 38%
    17:00 +19°C° 0.1 mm 2 mps 641 mmHg 42%
    18:00 +18°C° 0.1 mm 2 mps 641 mmHg 45%
    19:00 +15°C° 0.1 mm 1 mps 641 mmHg 54%
    20:00 +12°C° 0.1 mm 1 mps 640 mmHg 63%
    21:00 +9°C° 0.1 mm 1 mps 639 mmHg 72%
    22:00 +9°C° 0.1 mm 1 mps 639 mmHg 73%
    23:00 +9°C° 0.1 mm 1 mps 639 mmHg 73%

    27 May, Saturday

    Time Temperature Precipitation Wind Pressure Humidity
    00:00 +8°C° 0.1 mm 1 mps 639 mmHg 74%
    01:00 +8°C° 0.2 mm 1 mps 639 mmHg 74%
    02:00 +8°C° 0.2 mm 1 mps 638 mmHg 74%
    03:00 +8°C° 0.2 mm 1 mps 638 mmHg 74%
    04:00 +10°C° 0.2 mm 1 mps 639 mmHg 70%
    05:00 +11°C° 0.2 mm 1 mps 639 mmHg 67%
    06:00 +13°C° 0.2 mm 1 mps 640 mmHg 64%
    07:00 +15°C° 0.2 mm 1 mps 640 mmHg 56%
    08:00 +17°C° 0.2 mm 2 mps 640 mmHg 49%
    09:00 +20°C° 0.2 mm 2 mps 641 mmHg 41%
    10:00 +21°C° 0.2 mm 2 mps 641 mmHg 39%
    11:00 +23°C° 0.2 mm 2 mps 640 mmHg 37%
    12:00 +24°C° 0.2 mm 2 mps 640 mmHg 35%
    13:00 +23°C° 0.6 mm 2 mps 640 mmHg 40%
    14:00 +23°C° 0.6 mm 2 mps 639 mmHg 44%
    15:00 +23°C° 0.6 mm 2 mps 639 mmHg 48%
    16:00 +21°C° 0.7 mm 2 mps 638 mmHg 52%
    17:00 +21°C° 0.7 mm 1 mps 638 mmHg 57%
    18:00 +20°C° 0.7 mm 1 mps 638 mmHg 61%
    19:00 +16°C° 0.2 mm 1 mps 638 mmHg 66%
    20:00 +14°C° 0.2 mm 1 mps 637 mmHg 71%
    21:00 +11°C° 0.2 mm 1 mps 637 mmHg 75%
    22:00 +11°C° 0 mm 1 mps 637 mmHg 75%
    23:00 +10°C° 0 mm 1 mps 637 mmHg 75%

    28 May, Sunday

    Time Temperature Precipitation Wind Pressure Humidity
    00:00 +10°C° 0 mm 1 mps 637 mmHg 74%
    01:00 +9°C° 0 mm 1 mps 637 mmHg 75%
    02:00 +9°C° 0 mm 1 mps 637 mmHg 76%
    03:00 +8°C° 0 mm 1 mps 637 mmHg 77%
    04:00 +9°C° 0 mm 1 mps 637 mmHg 74%
    05:00 +11°C° 0 mm 1 mps 638 mmHg 70%
    06:00 +12°C° 0 mm 1 mps 639 mmHg 67%
    07:00 +14°C° 0 mm 2 mps 639 mmHg 57%
    08:00 +17°C° 0 mm 2 mps 640 mmHg 47%
    09:00 +19°C° 0 mm 2 mps 640 mmHg 37%
    10:00 +20°C° 0 mm 3 mps 640 mmHg 34%
    11:00 +21°C° 0 mm 3 mps 640 mmHg 31%
    12:00 +23°C° 0 mm 4 mps 640 mmHg 28%
    13:00 +23°C° 0 mm 4 mps 640 mmHg 28%
    14:00 +23°C° 0 mm 4 mps 640 mmHg 28%
    15:00 +23°C° 0 mm 5 mps 640 mmHg 28%
    16:00 +22°C° 0 mm 4 mps 640 mmHg 32%
    17:00 +21°C° 0 mm 4 mps 639 mmHg 35%
    18:00 +20°C° 0 mm 3 mps 639 mmHg 39%
    19:00 +18°C° 0 mm 3 mps 639 mmHg 47%
    20:00 +15°C° 0 mm 2 mps 639 mmHg 55%
    21:00 +12°C° 0 mm 2 mps 638 mmHg 62%
    22:00 +12°C° 0 mm 1 mps 638 mmHg 65%
    23:00 +11°C° 0 mm 1 mps 638 mmHg 68%
    Show more